Find Starlink 3781

NORAD ID: 52272 Int'l Des: 2022-041 Owner: SPXS Country: US Constellation: starlink operational
LEOCIRCULAR

当前视图

正在加载3D地球...

About Starlink 3781

Starlink 3781 (NORAD 52272) is a starlink constellation satellite (v1.5) launched Apr 21, 2022 by SPXS of US. It operates in LEO, CIRCULAR orbit with a mass of 297.00 kg.

关于 Starlink 3781

正在加载描述...

即将过境

Passes for default location (London). Set your location on the main map for personalized predictions.

高度历史

Loading altitude history...

两行轨道根数

1 52272U 22041M 26193.43807015 .00000230 00000-0 20292-4 0 9990
2 52272 53.1602 267.0585 0000814 84.5696 275.5397 15.29355058233224
Epoch: Jul 12, 2026 • Age: 11 hours

当前状态

高度 491.7 km
远地点 / 近地点 N/A
速度 7.62 km/s
星下点 -40.79°S, 24.64°W
发射日期 Apr 21, 2022
运行时间 4.2 years
类型 internet

技术详情

分类 Payload
质量 297.00 kg
干质量 275.00 kg
总质量 297.00 kg
长度 0.20 m
直径 2.80 m
跨度 9.00 m
形状 Box + pan
制造商 SPXS
平台类型 Starlink
阶段状态 In Orbit
所有者/国家 SPXS/US

Most Searched